THOR ABLESTAR DEB

基本信息
目录编号:
330
目录名称:
THOR ABLESTAR DEB
国际标识:
1961-015DG
轨道中心:
EARTH
物体状态:
在轨
发射日期:
1961-06-29 UTC
轨道信息
数据来源: 国际轨道数据
星历时间: 2026-07-28T00:27:49+0800
半长轴: 7248.361km
偏心率: 0.0040973
轨道倾角: 66.977°
近地点辐角: 89.070°
升交点赤经: 203.034°
平近点角: 271.508°
近地点: 840.525km
远地点: 899.923km
周期: 102.357分钟
每日圈数: 14.068347
详细信息
发射场:
AFETR
轨道高度:
LEO
数据来源:
AOE Integration Group
参考系:
TEME
时间系统:
UTC
历元类型:
SGP4
2D轨道图
3D轨道图
轨道高度分析图
轨道倾角分析图
轨道综合分析图
查看轨道综合分析图